Location: Newark
(33.9035°S, 18.4112°E)
Time: 19:41:11
(UTC+00:00)

FALCON 9 DEB - Pass Details

Date: 23 January 2020
Orbit: 240 x 245 km, 53.0° (Epoch: 18 February)

Event Time Altitude Azimuth Distance (km) Brightness Sun altitude
Exits shadow 01:44:04 16° 138° (SE) 850 ? -23.5°
Drops below altitude 10° 01:44:40 10° 138° (SE) 1,104 ? -23.4°
Sets 01:46:33 0° 136° (SE) 1,903 ? -23.1°
